Location: *
(34.0486°S, 61.7880°E)
Time: 16:26:02
(UTC+00:00)

Cosmos 1758 - Pass Details

Date: 01 April 2020
Orbit: 539 x 563 km, 82.5° (Epoch: 27 May)

Event Time Altitude Azimuth Distance (km) Brightness Sun altitude
Rises 14:22:06 0° 182° (S) 2,757 6.9 -8.0°
Reaches altitude 10° 14:24:19 10° 177° (S) 1,858 6.0 -8.5°
Maximum altitude 14:28:20 55° 98° (E) 679 3.4 -9.3°
Drops below altitude 10° 14:32:20 10° 20° (NNE) 1,845 5.8 -10.1°
Sets 14:34:31 0° 15° (NNE) 2,735 6.7 -10.6°
